Washington, MO

9:53 PM CDT on October 23, 2017 (GMT -0500)
Washington

Weather History for KFYG - October, 2012

Change the Weather History Date:

Monday, October 29, 2012

  Actual Average (KSUS) Record (KSUS)
Temperature  
Mean Temperature 40 °F -  
Max Temperature 53 °F 61 °F 84 °F (2004)
Min Temperature 28 °F 41 °F 27 °F (2012)
Degree Days  
Heating Degree Days 24    
Moisture  
Dew Point 26 °F    
Average Humidity 63    
Maximum Humidity 100    
Minimum Humidity 24    
Precipitation  
Precipitation 0.00 in - - ()
Sea Level Pressure  
Sea Level Pressure 30.25 in    
Wind  
Wind Speed 1 mph ()    
Max Wind Speed 9 mph    
Max Gust Speed -    
Visibility 9.9 miles    
Events      
Averages and records for this station are not official NWS values.
T = Trace of Precipitation, MM = Missing Value Source: Averaged Metar Reports

Daily Weather History Graph

Daily Weather History Graph

Search for Another Location

Airport or City:

Trip Planner

Search our weather history database for the weather conditions in past years. The results will help you decide how hot, cold, wet, or windy it might be!

Date:

Astronomy

Oct. 29, 2012 Rise Set
Actual Time 7:27 AM CDT 6:06 PM CDT
Civil Twilight 7:00 AM CDT 6:34 PM CDT
Nautical Twilight 6:29 AM CDT 7:05 PM CDT
Astronomical Twilight 5:58 AM CDT 7:36 PM CDT
Moon 5:59 PM CDT (10/29) 7:18 AM CDT (10/29)
Length of Visible Light 11h 33m
Length of Day
10h 38m
Full, 100% of the Moon is Illuminated
Oct 29
Full
Oct 29
Full
Nov 6
Last Quarter
Nov 13
New
Nov 20
First Quarter

Hourly Weather History & Observations

Time (CDT) Temp. Windchill Dew Point Humidity Pressure Visibility Wind Dir Wind Speed Gust Speed Precip Events Conditions
12:15 AM 32.0 °F - 28.4 °F 87% 30.28 in 10.0 mi Calm Calm - N/A   Clear
12:35 AM 32.0 °F - 30.2 °F 93% 30.28 in 10.0 mi Calm Calm - N/A   Clear
12:55 AM 32.0 °F - 28.4 °F 87% 30.27 in 10.0 mi Calm Calm - N/A   Clear
1:35 AM 30.2 °F - 28.4 °F 93% 30.27 in 10.0 mi Calm Calm - N/A   Clear
1:55 AM 28.4 °F - 28.4 °F 100% 30.27 in 10.0 mi Calm Calm - N/A   Clear
2:15 AM 32.0 °F - 30.2 °F 93% 30.28 in 10.0 mi Calm Calm - N/A   Clear
2:35 AM 30.2 °F - 28.4 °F 93% 30.29 in 10.0 mi Calm Calm - N/A   Clear
2:55 AM 32.0 °F - 30.2 °F 93% 30.28 in 10.0 mi Calm Calm - N/A   Clear
3:35 AM 32.0 °F - 30.2 °F 93% 30.28 in 10.0 mi Calm Calm - N/A   Clear
4:15 AM 32.0 °F - 28.4 °F 87% 30.29 in 10.0 mi Calm Calm - N/A   Clear
4:35 AM 30.2 °F - 28.4 °F 93% 30.29 in 10.0 mi Calm Calm - N/A   Clear
4:55 AM 28.4 °F - 26.6 °F 93% 30.29 in 10.0 mi Calm Calm - N/A   Clear
5:15 AM 28.4 °F - 26.6 °F 93% 30.30 in 10.0 mi Calm Calm - N/A   Clear
5:35 AM 30.2 °F - 28.4 °F 93% 30.30 in 10.0 mi Calm Calm - N/A   Clear
5:55 AM 32.0 °F - 28.4 °F 87% 30.30 in 10.0 mi Calm Calm - N/A   Clear
6:15 AM 28.4 °F - 26.6 °F 93% 30.31 in 10.0 mi Calm Calm - N/A   Clear
6:35 AM 28.4 °F - 28.4 °F 100% 30.32 in 10.0 mi Calm Calm - N/A   Mostly Cloudy
6:55 AM 30.2 °F - 28.4 °F 93% 30.32 in 7.0 mi Calm Calm - N/A   Scattered Clouds
7:15 AM 30.2 °F - 28.4 °F 93% 30.33 in 7.0 mi Calm Calm - N/A   Clear
7:35 AM 30.2 °F - 28.4 °F 93% 30.33 in 9.0 mi Calm Calm - N/A   Clear
7:55 AM 32.0 °F - 30.2 °F 93% 30.34 in 10.0 mi Calm Calm - N/A   Clear
8:15 AM 33.8 °F - 30.2 °F 87% 30.34 in 10.0 mi Calm Calm - N/A   Clear
8:35 AM 37.4 °F 32.8 °F 32.0 °F 81% 30.34 in 10.0 mi WNW 5.8 mph - N/A   Clear
8:55 AM 37.4 °F - 32.0 °F 81% 30.34 in 10.0 mi Calm Calm - N/A   Clear
9:15 AM 39.2 °F 35.0 °F 32.0 °F 75% 30.34 in 10.0 mi WNW 5.8 mph - N/A   Clear
9:35 AM 42.8 °F - 32.0 °F 66% 30.33 in 10.0 mi Calm Calm - N/A   Clear
9:55 AM 44.6 °F 40.7 °F 28.4 °F 53% 30.33 in 10.0 mi North 6.9 mph - N/A   Clear
10:15 AM 46.4 °F 42.9 °F 26.6 °F 46% 30.32 in 10.0 mi North 6.9 mph - N/A   Clear
10:35 AM 48.2 °F - 24.8 °F 40% 30.32 in 10.0 mi North 5.8 mph - N/A   Clear
10:55 AM 48.2 °F - 24.8 °F 40% 30.31 in 10.0 mi North 8.1 mph - N/A   Clear
11:15 AM 50.0 °F - 23.0 °F 35% 30.31 in 10.0 mi North 4.6 mph - N/A   Partly Cloudy
11:55 AM 50.0 °F - 23.0 °F 35% 30.28 in 10.0 mi NNW 8.1 mph - N/A   Clear
12:15 PM 50.0 °F - 23.0 °F 35% 30.27 in 10.0 mi Calm Calm - N/A   Clear
1:15 PM 53.6 °F - 19.4 °F 26% 30.23 in 10.0 mi NNW 5.8 mph - N/A   Clear
1:35 PM 53.6 °F - 19.4 °F 26% 30.22 in 10.0 mi NW 8.1 mph - N/A   Clear
1:55 PM 53.6 °F - 19.4 °F 26% 30.21 in 10.0 mi NW 9.2 mph - N/A   Clear
2:15 PM 53.6 °F - 17.6 °F 24% 30.21 in 10.0 mi Calm Calm - N/A   Clear
2:35 PM 53.6 °F - 19.4 °F 26% 30.20 in 10.0 mi Calm Calm - N/A   Clear
2:55 PM 53.6 °F - 19.4 °F 26% 30.20 in 10.0 mi North 9.2 mph - N/A   Clear
3:15 PM 53.6 °F - 21.2 °F 28% 30.20 in 10.0 mi NNW 9.2 mph - N/A   Clear
3:35 PM 53.6 °F - 17.6 °F 24% 30.20 in 10.0 mi NNW 8.1 mph - N/A   Clear
4:15 PM 51.8 °F - 19.4 °F 28% 30.19 in 10.0 mi North 8.1 mph - N/A   Clear
4:35 PM 51.8 °F - 19.4 °F 28% 30.18 in 10.0 mi North 4.6 mph - N/A   Clear
4:55 PM 50.0 °F - 23.0 °F 35% 30.18 in 10.0 mi Calm Calm - N/A   Partly Cloudy
5:15 PM 50.0 °F - 23.0 °F 35% 30.18 in 10.0 mi Calm Calm - N/A   Partly Cloudy
5:35 PM 48.2 °F - 23.0 °F 37% 30.18 in 10.0 mi Calm Calm - N/A   Mostly Cloudy
5:55 PM 46.4 °F - 24.8 °F 43% 30.18 in 10.0 mi Calm Calm - N/A   Mostly Cloudy
6:15 PM 46.4 °F - 23.0 °F 40% 30.17 in 10.0 mi Calm Calm - N/A   Overcast
6:35 PM 46.4 °F - 23.0 °F 40% 30.17 in 10.0 mi Calm Calm - N/A   Overcast
6:55 PM 44.6 °F - 24.8 °F 46% 30.16 in 10.0 mi Calm Calm - N/A   Overcast
9:35 PM 39.2 °F - 26.6 °F 61% 30.15 in 10.0 mi Calm Calm - N/A   Scattered Clouds
9:55 PM 37.4 °F - 26.6 °F 65% 30.15 in 10.0 mi Calm Calm - N/A   Scattered Clouds
10:15 PM 39.2 °F - 28.4 °F 65% 30.14 in 10.0 mi Calm Calm - N/A   Clear
10:35 PM 39.2 °F - 28.4 °F 65% 30.14 in 10.0 mi Calm Calm - N/A   Clear
10:55 PM 39.2 °F - 28.4 °F 65% 30.14 in 10.0 mi Calm Calm - N/A   Clear
11:15 PM 39.2 °F - 28.4 °F 65% 30.14 in 10.0 mi Calm Calm - N/A   Clear
11:35 PM 37.4 °F - 28.4 °F 70% 30.13 in 10.0 mi Calm Calm - N/A   Clear
11:55 PM 37.4 °F - 28.4 °F 70% 30.13 in 10.0 mi Calm Calm - N/A   Clear